| time (UTC) | temp C | wind direction | speed KPH | gust KPH | rain 1hr cm | rain 24hr cm | rain mn cm | humidity % | barometer mb |
| 20260507075744 | 13 | 0 | 0.0 | 0.0 | 0.00 | 0.00 | 0.00 | 82 | 1016.3 |
| 20260507075515 | 13 | 0 | 0.0 | 0.0 | 0.00 | 0.00 | 0.00 | 82 | 1016.2 |
| 20260507075008 | 13 | 0 | 0.0 | 0.0 | 0.00 | 0.00 | 0.00 | 82 | 1016.4 |
| 20260507074238 | 13 | 0 | 0.0 | 0.0 | 0.00 | 0.00 | 0.00 | 81 | 1016.4 |
| 20260507073734 | 13 | 0 | 0.0 | 0.0 | 0.00 | 0.00 | 0.00 | 81 | 1016.4 |
| 20260507073234 | 14 | 0 | 0.0 | 0.0 | 0.00 | 0.00 | 0.00 | 81 | 1016.3 |
| 20260507073005 | 14 | 0 | 0.0 | 0.0 | 0.00 | 0.00 | 0.00 | 81 | 1016.4 |
| 20260507072234 | 14 | 0 | 0.0 | 0.0 | 0.00 | 0.00 | 0.00 | 81 | 1016.4 |
| 20260507071735 | 14 | 0 | 0.0 | 0.0 | 0.00 | 0.00 | 0.00 | 81 | 1016.3 |
| 20260507071233 | 14 | 0 | 0.0 | 0.0 | 0.00 | 0.00 | 0.00 | 80 | 1016.4 |
| 20260507070731 | 14 | 0 | 0.0 | 0.0 | 0.00 | 0.00 | 0.00 | 80 | 1016.4 |
| 20260507070230 | 14 | 0 | 0.0 | 0.0 | 0.00 | 0.00 | 0.00 | 80 | 1016.4 |
| 20260507065725 | 14 | 0 | 0.0 | 0.0 | 0.00 | 0.00 | 0.00 | 80 | 1016.5 |
| 20260507065225 | 14 | 0 | 0.0 | 0.0 | 0.00 | 0.00 | 0.00 | 79 | 1016.5 |
| 20260507064725 | 15 | 0 | 0.0 | 0.0 | 0.00 | 0.00 | 0.00 | 78 | 1016.6 |
| 20260507064223 | 15 | 0 | 0.0 | 0.0 | 0.00 | 0.00 | 0.00 | 78 | 1016.7 |
| 20260507063722 | 15 | 0 | 0.0 | 1.6 | 0.00 | 0.00 | 0.00 | 77 | 1016.7 |
| 20260507063454 | 15 | 0 | 0.0 | 1.6 | 0.00 | 0.00 | 0.00 | 77 | 1016.7 |
| 20260507062722 | 15 | 0 | 0.0 | 0.0 | 0.00 | 0.00 | 0.00 | 77 | 1016.7 |
| 20260507062218 | 15 | 0 | 0.0 | 0.0 | 0.00 | 0.00 | 0.00 | 77 | 1016.6 |
| 20260507061948 | 15 | 0 | 0.0 | 0.0 | 0.00 | 0.00 | 0.00 | 76 | 1016.6 |
| 20260507061217 | 15 | 0 | 0.0 | 0.0 | 0.00 | 0.00 | 0.00 | 76 | 1016.7 |
| 20260507060718 | 15 | 0 | 0.0 | 1.6 | 0.00 | 0.00 | 0.00 | 75 | 1016.6 |
| 20260507060216 | 16 | 0 | 0.0 | 1.6 | 0.00 | 0.00 | 0.00 | 75 | 1016.6 |
| 20260507055711 | 16 | 0 | 0.0 | 1.6 | 0.00 | 0.00 | 0.00 | 74 | 1016.7 |
| 20260507054711 | 16 | 0 | 0.0 | 0.0 | 0.00 | 0.00 | 0.00 | 73 | 1016.6 |
| 20260507054442 | 16 | 0 | 0.0 | 0.0 | 0.00 | 0.00 | 0.00 | 72 | 1016.7 |
| 20260507053942 | 16 | 0 | 0.0 | 1.6 | 0.00 | 0.00 | 0.00 | 72 | 1016.7 |
| 20260507053205 | 16 | 0 | 0.0 | 1.6 | 0.00 | 0.00 | 0.00 | 72 | 1016.7 |
| 20260507052705 | 16 | 0 | 0.0 | 3.2 | 0.00 | 0.00 | 0.00 | 71 | 1016.6 |
| 20260507052205 | 16 | 0 | 1.6 | 6.4 | 0.00 | 0.00 | 0.00 | 71 | 1016.5 |
| 20260507051933 | 16 | 0 | 1.6 | 6.4 | 0.00 | 0.00 | 0.00 | 71 | 1016.5 |
| 20260507051201 | 17 | 0 | 3.2 | 6.4 | 0.00 | 0.00 | 0.00 | 71 | 1016.6 |
| 20260507050701 | 17 | 0 | 1.6 | 6.4 | 0.00 | 0.00 | 0.00 | 71 | 1016.5 |
| 20260507050201 | 17 | 0 | 1.6 | 6.4 | 0.00 | 0.00 | 0.00 | 71 | 1016.5 |
| 20260507045700 | 17 | 0 | 1.6 | 8.0 | 0.00 | 0.00 | 0.00 | 70 | 1016.4 |
| 20260507045155 | 17 | 0 | 3.2 | 8.0 | 0.00 | 0.00 | 0.00 | 70 | 1016.4 |
| 20260507044655 | 17 | 0 | 3.2 | 6.4 | 0.00 | 0.00 | 0.00 | 70 | 1016.4 |
| 20260507044154 | 17 | 0 | 3.2 | 6.4 | 0.00 | 0.00 | 0.00 | 69 | 1016.4 |
| 20260507043649 | 17 | 0 | 3.2 | 6.4 | 0.00 | 0.00 | 0.00 | 69 | 1016.4 |
| 20260507043150 | 17 | 0 | 4.8 | 6.4 | 0.00 | 0.00 | 0.00 | 69 | 1016.4 |
| 20260507042649 | 17 | 0 | 3.2 | 8.0 | 0.00 | 0.00 | 0.00 | 69 | 1016.3 |
| 20260507042144 | 17 | 0 | 3.2 | 8.0 | 0.00 | 0.00 | 0.00 | 68 | 1016.3 |
| 20260507041913 | 17 | 0 | 3.2 | 8.0 | 0.00 | 0.00 | 0.00 | 68 | 1016.4 |
| 20260507041143 | 18 | 0 | 4.8 | 8.0 | 0.00 | 0.00 | 0.00 | 67 | 1016.3 |
| 20260507040637 | 18 | 0 | 4.8 | 8.0 | 0.00 | 0.00 | 0.00 | 66 | 1016.2 |
| 20260507040137 | 18 | 0 | 3.2 | 9.7 | 0.00 | 0.00 | 0.00 | 66 | 1016.2 |
| 20260507035631 | 18 | 0 | 3.2 | 9.7 | 0.00 | 0.00 | 0.00 | 65 | 1016.1 |
| 20260507035403 | 18 | 0 | 3.2 | 6.4 | 0.00 | 0.00 | 0.00 | 65 | 1016.0 |
| 20260507034630 | 18 | 0 | 1.6 | 6.4 | 0.00 | 0.00 | 0.00 | 65 | 1016.0 |
| 20260507034130 | 18 | 0 | 1.6 | 8.0 | 0.00 | 0.00 | 0.00 | 66 | 1015.9 |
| 20260507033627 | 18 | 0 | 1.6 | 8.0 | 0.00 | 0.00 | 0.00 | 67 | 1015.9 |
| 20260507033127 | 18 | 0 | 1.6 | 8.0 | 0.00 | 0.00 | 0.00 | 67 | 1015.9 |
| 20260507032626 | 18 | 0 | 1.6 | 8.0 | 0.00 | 0.00 | 0.00 | 67 | 1015.8 |
| 20260507032126 | 18 | 0 | 3.2 | 9.7 | 0.00 | 0.00 | 0.00 | 67 | 1015.7 |
| 20260507031853 | 18 | 0 | 3.2 | 9.7 | 0.00 | 0.00 | 0.00 | 66 | 1015.7 |
| 20260507031121 | 18 | 0 | 1.6 | 6.4 | 0.00 | 0.00 | 0.00 | 65 | 1015.6 |
| 20260507030621 | 19 | 0 | 1.6 | 9.7 | 0.00 | 0.00 | 0.00 | 65 | 1015.6 |
| 20260507030115 | 19 | 0 | 4.8 | 14.5 | 0.00 | 0.00 | 0.00 | 63 | 1015.6 |
| 20260507025612 | 19 | 0 | 6.4 | 14.5 | 0.00 | 0.00 | 0.00 | 63 | 1015.5 |
| 20260507025113 | 19 | 0 | 4.8 | 14.5 | 0.00 | 0.00 | 0.00 | 63 | 1015.5 |
| 20260507024114 | 20 | 0 | 4.8 | 14.5 | 0.00 | 0.00 | 0.00 | 62 | 1015.3 |
| 20260507023107 | 20 | 0 | 4.8 | 9.7 | 0.00 | 0.00 | 0.00 | 61 | 1015.3 |
| 20260507022606 | 20 | 0 | 4.8 | 12.9 | 0.00 | 0.00 | 0.00 | 60 | 1015.1 |
| 20260507022102 | 20 | 0 | 4.8 | 12.9 | 0.00 | 0.00 | 0.00 | 60 | 1015.1 |
| 20260507021600 | 21 | 0 | 4.8 | 14.5 | 0.00 | 0.00 | 0.00 | 59 | 1015.1 |
| 20260507021102 | 21 | 0 | 4.8 | 14.5 | 0.00 | 0.00 | 0.00 | 58 | 1015.1 |
| 20260507020555 | 21 | 0 | 6.4 | 14.5 | 0.00 | 0.00 | 0.00 | 58 | 1014.9 |
| 20260507020054 | 21 | 0 | 4.8 | 14.5 | 0.00 | 0.00 | 0.00 | 57 | 1015.1 |
| 20260507015826 | 21 | 0 | 4.8 | 12.9 | 0.00 | 0.00 | 0.00 | 57 | 1014.9 |
| 20260507015051 | 21 | 0 | 6.4 | 14.5 | 0.00 | 0.00 | 0.00 | 57 | 1014.9 |
| 20260507014548 | 21 | 0 | 6.4 | 16.1 | 0.00 | 0.00 | 0.00 | 56 | 1014.8 |
| 20260507014049 | 22 | 0 | 8.0 | 16.1 | 0.00 | 0.00 | 0.00 | 56 | 1014.8 |
| 20260507013819 | 22 | 0 | 6.4 | 16.1 | 0.00 | 0.00 | 0.00 | 55 | 1014.8 |
| 20260507013318 | 22 | 0 | 6.4 | 17.7 | 0.00 | 0.00 | 0.00 | 55 | 1014.7 |
| 20260507012543 | 22 | 0 | 6.4 | 17.7 | 0.00 | 0.00 | 0.00 | 54 | 1014.7 |
| 20260507012043 | 22 | 0 | 6.4 | 17.7 | 0.00 | 0.00 | 0.00 | 54 | 1014.7 |
| 20260507011814 | 23 | 0 | 8.0 | 17.7 | 0.00 | 0.00 | 0.00 | 53 | 1014.6 |
| 20260507011043 | 23 | 0 | 8.0 | 17.7 | 0.00 | 0.00 | 0.00 | 52 | 1014.6 |
| 20260507010542 | 23 | 0 | 8.0 | 19.3 | 0.00 | 0.00 | 0.00 | 52 | 1014.5 |
| 20260507010314 | 23 | 0 | 6.4 | 19.3 | 0.00 | 0.00 | 0.00 | 51 | 1014.5 |
| 20260507005542 | 23 | 0 | 6.4 | 14.5 | 0.00 | 0.00 | 0.00 | 51 | 1014.5 |
| 20260507005041 | 23 | 0 | 8.0 | 16.1 | 0.00 | 0.00 | 0.00 | 51 | 1014.4 |
| 20260507004540 | 23 | 0 | 6.4 | 17.7 | 0.00 | 0.00 | 0.00 | 51 | 1014.4 |
| 20260507004040 | 23 | 0 | 6.4 | 17.7 | 0.00 | 0.00 | 0.00 | 51 | 1014.5 |
| 20260507003538 | 23 | 0 | 6.4 | 19.3 | 0.00 | 0.00 | 0.00 | 49 | 1014.5 |
| 20260507003308 | 23 | 0 | 8.0 | 19.3 | 0.00 | 0.00 | 0.00 | 49 | 1014.5 |
| 20260507002536 | 24 | 0 | 6.4 | 17.7 | 0.00 | 0.00 | 0.00 | 49 | 1014.4 |
| 20260507001533 | 23 | 0 | 8.0 | 19.3 | 0.00 | 0.00 | 0.00 | 50 | 1014.4 |
| 20260507001032 | 24 | 0 | 8.0 | 19.3 | 0.00 | 0.00 | 0.00 | 50 | 1014.4 |
| 20260507000531 | 24 | 0 | 6.4 | 17.7 | 0.00 | 0.00 | 0.00 | 50 | 1014.4 |
| 20260507000030 | 24 | 0 | 6.4 | 17.7 | 0.00 | 0.00 | 0.00 | 50 | 1014.4 |
| 20260506235531 | 24 | 0 | 8.0 | 19.3 | 0.00 | 0.00 | 0.00 | 50 | 1014.3 |
| 20260506235030 | 24 | 0 | 9.7 | 19.3 | 0.00 | 0.00 | 0.00 | 50 | 1014.4 |
| 20260506234530 | 24 | 0 | 9.7 | 19.3 | 0.00 | 0.00 | 0.00 | 50 | 1014.3 |
| 20260506234026 | 24 | 0 | 9.7 | 19.3 | 0.00 | 0.00 | 0.00 | 48 | 1014.3 |
| 20260506233526 | 24 | 0 | 8.0 | 19.3 | 0.00 | 0.00 | 0.00 | 49 | 1014.3 |
| 20260506233026 | 24 | 0 | 8.0 | 19.3 | 0.00 | 0.00 | 0.00 | 48 | 1014.3 |
| 20260506232526 | 25 | 0 | 6.4 | 14.5 | 0.00 | 0.00 | 0.00 | 46 | 1014.4 |
| 20260506232026 | 25 | 0 | 8.0 | 17.7 | 0.00 | 0.00 | 0.00 | 47 | 1014.4 |
| 20260506231527 | 25 | 0 | 8.0 | 19.3 | 0.00 | 0.00 | 0.00 | 46 | 1014.4 |
| 20260506231258 | 24 | 0 | 8.0 | 19.3 | 0.00 | 0.00 | 0.00 | 47 | 1014.4 |
| 20260506230527 | 24 | 0 | 8.0 | 17.7 | 0.00 | 0.00 | 0.00 | 48 | 1014.5 |
| 20260506230028 | 24 | 0 | 9.7 | 19.3 | 0.00 | 0.00 | 0.00 | 47 | 1014.6 |
| 20260506225527 | 25 | 0 | 9.7 | 20.9 | 0.00 | 0.00 | 0.00 | 45 | 1014.7 |
| 20260506225028 | 25 | 0 | 8.0 | 20.9 | 0.00 | 0.00 | 0.00 | 45 | 1014.6 |
| 20260506224754 | 25 | 0 | 8.0 | 19.3 | 0.00 | 0.00 | 0.00 | 47 | 1014.6 |
| 20260506224022 | 25 | 0 | 8.0 | 20.9 | 0.00 | 0.00 | 0.00 | 46 | 1014.5 |
| 20260506223749 | 25 | 0 | 9.7 | 24.1 | 0.00 | 0.00 | 0.00 | 47 | 1014.7 |
| 20260506223018 | 25 | 0 | 9.7 | 24.1 | 0.00 | 0.00 | 0.00 | 47 | 1014.8 |
| 20260506222518 | 25 | 0 | 9.7 | 20.9 | 0.00 | 0.00 | 0.00 | 46 | 1014.7 |
| 20260506222018 | 25 | 0 | 9.7 | 24.1 | 0.00 | 0.00 | 0.00 | 48 | 1014.8 |
| 20260506221517 | 25 | 0 | 9.7 | 24.1 | 0.00 | 0.00 | 0.00 | 46 | 1014.8 |
| 20260506221012 | 25 | 0 | 8.0 | 20.9 | 0.00 | 0.00 | 0.00 | 47 | 1014.8 |
| 20260506220512 | 25 | 0 | 8.0 | 19.3 | 0.00 | 0.00 | 0.00 | 47 | 1014.9 |
| 20260506220012 | 24 | 0 | 6.4 | 17.7 | 0.00 | 0.00 | 0.00 | 48 | 1015.1 |
| 20260506215742 | 24 | 0 | 8.0 | 27.4 | 0.00 | 0.00 | 0.00 | 48 | 1015.2 |
| 20260506215012 | 25 | 0 | 9.7 | 27.4 | 0.00 | 0.00 | 0.00 | 47 | 1015.3 |
| 20260506214506 | 25 | 0 | 6.4 | 20.9 | 0.00 | 0.00 | 0.00 | 47 | 1015.3 |
| 20260506214006 | 25 | 0 | 6.4 | 19.3 | 0.00 | 0.00 | 0.00 | 49 | 1015.3 |
| 20260506213505 | 24 | 0 | 8.0 | 19.3 | 0.00 | 0.00 | 0.00 | 49 | 1015.3 |
| 20260506213006 | 24 | 0 | 6.4 | 19.3 | 0.00 | 0.00 | 0.00 | 49 | 1015.4 |
| 20260506212505 | 24 | 0 | 6.4 | 22.5 | 0.00 | 0.00 | 0.00 | 50 | 1015.5 |
| 20260506212004 | 24 | 0 | 8.0 | 22.5 | 0.00 | 0.00 | 0.00 | 48 | 1015.6 |
| 20260506211003 | 24 | 0 | 8.0 | 16.1 | 0.00 | 0.00 | 0.00 | 49 | 1015.6 |
| 20260506210504 | 24 | 0 | 8.0 | 17.7 | 0.00 | 0.00 | 0.00 | 50 | 1015.7 |
| 20260506210002 | 24 | 0 | 8.0 | 17.7 | 0.00 | 0.00 | 0.00 | 49 | 1015.7 |
| 20260506205502 | 24 | 0 | 6.4 | 17.7 | 0.00 | 0.00 | 0.00 | 48 | 1015.7 |
| 20260506205233 | 24 | 0 | 9.7 | 20.9 | 0.00 | 0.00 | 0.00 | 50 | 1015.7 |
| 20260506204458 | 24 | 0 | 9.7 | 20.9 | 0.00 | 0.00 | 0.00 | 49 | 1015.8 |
| 20260506203959 | 24 | 0 | 8.0 | 19.3 | 0.00 | 0.00 | 0.00 | 48 | 1015.8 |
| 20260506203730 | 24 | 0 | 6.4 | 19.3 | 0.00 | 0.00 | 0.00 | 46 | 1015.8 |
| 20260506202958 | 24 | 0 | 6.4 | 16.1 | 0.00 | 0.00 | 0.00 | 46 | 1015.9 |
| 20260506202458 | 24 | 0 | 4.8 | 14.5 | 0.00 | 0.00 | 0.00 | 47 | 1015.9 |
| 20260506201952 | 23 | 0 | 4.8 | 14.5 | 0.00 | 0.00 | 0.00 | 47 | 1016.0 |
| 20260506201452 | 23 | 0 | 6.4 | 14.5 | 0.00 | 0.00 | 0.00 | 47 | 1016.0 |
| 20260506200951 | 23 | 0 | 4.8 | 14.5 | 0.00 | 0.00 | 0.00 | 46 | 1016.2 |
| 20260506200450 | 23 | 0 | 4.8 | 12.9 | 0.00 | 0.00 | 0.00 | 47 | 1016.2 |
| 20260506195951 | 23 | 0 | 4.8 | 16.1 | 0.00 | 0.00 | 0.00 | 47 | 1016.4 |
| 20260506195444 | 23 | 0 | 6.4 | 16.1 | 0.00 | 0.00 | 0.00 | 48 | 1016.5 |
| 20260506194444 | 23 | 0 | 8.0 | 17.7 | 0.00 | 0.00 | 0.00 | 48 | 1016.6 |
| 20260506193938 | 23 | 0 | 6.4 | 17.7 | 0.00 | 0.00 | 0.00 | 49 | 1016.6 |
| 20260506193438 | 22 | 0 | 4.8 | 14.5 | 0.00 | 0.00 | 0.00 | 52 | 1016.7 |
| 20260506192939 | 22 | 0 | 4.8 | 16.1 | 0.00 | 0.00 | 0.00 | 52 | 1016.6 |
| 20260506192431 | 22 | 0 | 4.8 | 16.1 | 0.00 | 0.00 | 0.00 | 51 | 1016.7 |
| 20260506191932 | 22 | 0 | 6.4 | 16.1 | 0.00 | 0.00 | 0.00 | 48 | 1016.8 |
| 20260506191431 | 22 | 0 | 4.8 | 14.5 | 0.00 | 0.00 | 0.00 | 50 | 1016.8 |
| 20260506190926 | 22 | 0 | 4.8 | 14.5 | 0.00 | 0.00 | 0.00 | 51 | 1016.9 |
| 20260506190427 | 22 | 0 | 4.8 | 14.5 | 0.00 | 0.00 | 0.00 | 49 | 1016.9 |
| 20260506185926 | 22 | 0 | 4.8 | 12.9 | 0.00 | 0.00 | 0.00 | 52 | 1017.0 |
| 20260506185420 | 22 | 0 | 4.8 | 12.9 | 0.00 | 0.00 | 0.00 | 49 | 1017.1 |
| 20260506184921 | 22 | 0 | 6.4 | 12.9 | 0.00 | 0.00 | 0.00 | 49 | 1017.2 |
| 20260506184419 | 22 | 0 | 6.4 | 12.9 | 0.00 | 0.00 | 0.00 | 53 | 1017.2 |
| 20260506183913 | 22 | 0 | 6.4 | 17.7 | 0.00 | 0.00 | 0.00 | 50 | 1017.3 |
| 20260506183646 | 21 | 0 | 4.8 | 17.7 | 0.00 | 0.00 | 0.00 | 54 | 1017.3 |
| 20260506182914 | 21 | 0 | 4.8 | 9.7 | 0.00 | 0.00 | 0.00 | 53 | 1017.4 |
| 20260506182407 | 21 | 0 | 6.4 | 12.9 | 0.00 | 0.00 | 0.00 | 53 | 1017.4 |
| 20260506181907 | 21 | 0 | 6.4 | 14.5 | 0.00 | 0.00 | 0.00 | 54 | 1017.4 |
| 20260506181408 | 21 | 0 | 6.4 | 14.5 | 0.00 | 0.00 | 0.00 | 53 | 1017.5 |
| 20260506181137 | 21 | 0 | 4.8 | 14.5 | 0.00 | 0.00 | 0.00 | 54 | 1017.4 |
| 20260506180405 | 20 | 0 | 4.8 | 17.7 | 0.00 | 0.00 | 0.00 | 54 | 1017.3 |
| 20260506175900 | 20 | 0 | 6.4 | 17.7 | 0.00 | 0.00 | 0.00 | 55 | 1017.4 |
| 20260506175359 | 20 | 0 | 4.8 | 12.9 | 0.00 | 0.00 | 0.00 | 53 | 1017.4 |
| 20260506174859 | 20 | 0 | 3.2 | 6.4 | 0.00 | 0.00 | 0.00 | 55 | 1017.4 |
| 20260506174356 | 20 | 0 | 4.8 | 9.7 | 0.00 | 0.00 | 0.00 | 56 | 1017.5 |
| 20260506173856 | 20 | 0 | 4.8 | 12.9 | 0.00 | 0.00 | 0.00 | 56 | 1017.5 |
| 20260506173356 | 20 | 0 | 4.8 | 12.9 | 0.00 | 0.00 | 0.00 | 56 | 1017.5 |
| 20260506172856 | 20 | 0 | 3.2 | 12.9 | 0.00 | 0.00 | 0.00 | 55 | 1017.5 |
| 20260506172355 | 20 | 0 | 1.6 | 8.0 | 0.00 | 0.00 | 0.00 | 56 | 1017.5 |
| 20260506171850 | 20 | 0 | 0.0 | 0.0 | 0.00 | 0.00 | 0.00 | 56 | 1017.5 |
| 20260506171349 | 20 | 0 | 0.0 | 4.8 | 0.00 | 0.00 | 0.00 | 59 | 1017.5 |
| 20260506170850 | 19 | 0 | 1.6 | 9.7 | 0.00 | 0.00 | 0.00 | 60 | 1017.6 |
| 20260506170349 | 19 | 0 | 3.2 | 9.7 | 0.00 | 0.00 | 0.00 | 58 | 1017.5 |
| 20260506165850 | 19 | 0 | 4.8 | 12.9 | 0.00 | 0.00 | 0.00 | 59 | 1017.4 |
| 20260506165344 | 19 | 0 | 3.2 | 12.9 | 0.00 | 0.00 | 0.00 | 60 | 1017.5 |
| 20260506164845 | 19 | 0 | 1.6 | 6.4 | 0.00 | 0.00 | 0.00 | 59 | 1017.5 |
| 20260506164343 | 19 | 0 | 1.6 | 6.4 | 0.00 | 0.00 | 0.00 | 60 | 1017.5 |
| 20260506163842 | 18 | 0 | 3.2 | 4.8 | 0.00 | 0.00 | 0.00 | 62 | 1017.5 |
| 20260506163342 | 18 | 0 | 3.2 | 8.0 | 0.00 | 0.00 | 0.00 | 60 | 1017.6 |
| 20260506162840 | 18 | 0 | 3.2 | 8.0 | 0.00 | 0.00 | 0.00 | 62 | 1017.6 |
| 20260506162339 | 18 | 0 | 3.2 | 8.0 | 0.00 | 0.00 | 0.00 | 62 | 1017.5 |
| 20260506161840 | 18 | 0 | 3.2 | 8.0 | 0.00 | 0.00 | 0.00 | 63 | 1017.6 |
| 20260506161340 | 18 | 0 | 3.2 | 8.0 | 0.00 | 0.00 | 0.00 | 63 | 1017.6 |
| 20260506160839 | 18 | 0 | 3.2 | 8.0 | 0.00 | 0.00 | 0.00 | 63 | 1017.5 |
| 20260506160333 | 18 | 0 | 3.2 | 8.0 | 0.00 | 0.00 | 0.00 | 63 | 1017.6 |
| 20260506155833 | 17 | 0 | 1.6 | 6.4 | 0.00 | 0.00 | 0.00 | 64 | 1017.5 |
| 20260506155331 | 17 | 0 | 1.6 | 4.8 | 0.00 | 0.00 | 0.00 | 67 | 1017.6 |
| 20260506154829 | 17 | 0 | 1.6 | 6.4 | 0.00 | 0.00 | 0.00 | 66 | 1017.6 |
| 20260506154329 | 17 | 0 | 1.6 | 6.4 | 0.00 | 0.00 | 0.00 | 68 | 1017.6 |
| 20260506153829 | 17 | 0 | 1.6 | 6.4 | 0.00 | 0.00 | 0.00 | 69 | 1017.7 |
| 20260506153328 | 16 | 0 | 1.6 | 6.4 | 0.00 | 0.00 | 0.00 | 69 | 1017.7 |
| 20260506152825 | 16 | 0 | 1.6 | 6.4 | 0.00 | 0.00 | 0.00 | 71 | 1017.6 |
| 20260506152322 | 16 | 0 | 1.6 | 6.4 | 0.00 | 0.00 | 0.00 | 72 | 1017.6 |
| 20260506151821 | 16 | 0 | 1.6 | 4.8 | 0.00 | 0.00 | 0.00 | 75 | 1017.7 |
| 20260506150819 | 15 | 0 | 1.6 | 4.8 | 0.00 | 0.00 | 0.00 | 81 | 1017.6 |
| 20260506150550 | 14 | 0 | 1.6 | 4.8 | 0.00 | 0.00 | 0.00 | 82 | 1017.6 |
| 20260506145816 | 14 | 0 | 0.0 | 3.2 | 0.00 | 0.00 | 0.00 | 83 | 1017.6 |
| 20260506145316 | 13 | 0 | 0.0 | 1.6 | 0.00 | 0.00 | 0.00 | 83 | 1017.6 |
| 20260506145047 | 13 | 0 | 1.6 | 3.2 | 0.00 | 0.00 | 0.00 | 85 | 1017.6 |
| 20260506144315 | 13 | 0 | 1.6 | 4.8 | 0.00 | 0.00 | 0.00 | 86 | 1017.6 |
| 20260506143811 | 13 | 0 | 1.6 | 4.8 | 0.00 | 0.00 | 0.00 | 87 | 1017.6 |
| 20260506143312 | 13 | 0 | 1.6 | 4.8 | 0.00 | 0.00 | 0.00 | 87 | 1017.5 |
| 20260506142807 | 12 | 0 | 3.2 | 4.8 | 0.00 | 0.00 | 0.00 | 88 | 1017.5 |
| 20260506142308 | 12 | 0 | 1.6 | 4.8 | 0.00 | 0.00 | 0.00 | 89 | 1017.5 |
| 20260506141808 | 12 | 0 | 0.0 | 0.0 | 0.00 | 0.00 | 0.00 | 90 | 1017.5 |
| 20260506141308 | 12 | 0 | 0.0 | 0.0 | 0.00 | 0.00 | 0.00 | 90 | 1017.5 |
| 20260506140803 | 11 | 0 | 0.0 | 0.0 | 0.00 | 0.00 | 0.00 | 90 | 1017.5 |
| 20260506140303 | 11 | 0 | 0.0 | 0.0 | 0.00 | 0.00 | 0.00 | 90 | 1017.5 |
| 20260506135759 | 11 | 0 | 0.0 | 0.0 | 0.00 | 0.00 | 0.00 | 90 | 1017.4 |
| 20260506135530 | 10 | 0 | 0.0 | 0.0 | 0.00 | 0.00 | 0.00 | 90 | 1017.4 |
| 20260506134800 | 10 | 0 | 0.0 | 0.0 | 0.00 | 0.00 | 0.00 | 90 | 1017.4 |
| 20260506134301 | 10 | 0 | 0.0 | 0.0 | 0.00 | 0.00 | 0.00 | 90 | 1017.4 |
| 20260506133756 | 10 | 0 | 0.0 | 0.0 | 0.00 | 0.00 | 0.00 | 90 | 1017.3 |
| 20260506133255 | 10 | 0 | 0.0 | 0.0 | 0.00 | 0.00 | 0.00 | 90 | 1017.3 |
| 20260506132751 | 10 | 0 | 0.0 | 0.0 | 0.00 | 0.00 | 0.00 | 90 | 1017.2 |
| 20260506132251 | 10 | 0 | 0.0 | 0.0 | 0.00 | 0.00 | 0.00 | 90 | 1017.1 |
| 20260506131751 | 10 | 0 | 0.0 | 0.0 | 0.00 | 0.00 | 0.00 | 90 | 1017.0 |
| 20260506131519 | 10 | 0 | 0.0 | 0.0 | 0.00 | 0.00 | 0.00 | 90 | 1016.9 |
| 20260506130748 | 10 | 0 | 0.0 | 0.0 | 0.00 | 0.00 | 0.00 | 90 | 1016.9 |
| 20260506130246 | 10 | 0 | 0.0 | 0.0 | 0.00 | 0.00 | 0.00 | 90 | 1016.9 |
| 20260506125748 | 10 | 0 | 0.0 | 0.0 | 0.00 | 0.00 | 0.00 | 90 | 1016.8 |
| 20260506125517 | 10 | 0 | 0.0 | 0.0 | 0.00 | 0.00 | 0.00 | 90 | 1016.9 |
| 20260506124747 | 10 | 0 | 0.0 | 0.0 | 0.00 | 0.00 | 0.00 | 90 | 1016.8 |
| 20260506124247 | 10 | 0 | 0.0 | 0.0 | 0.00 | 0.00 | 0.00 | 90 | 1016.7 |
| 20260506123745 | 10 | 0 | 0.0 | 0.0 | 0.00 | 0.00 | 0.00 | 90 | 1016.7 |
| 20260506123244 | 10 | 0 | 0.0 | 0.0 | 0.00 | 0.03 | 0.00 | 90 | 1016.7 |
| 20260506122739 | 10 | 0 | 0.0 | 0.0 | 0.00 | 0.03 | 0.00 | 90 | 1016.7 |
| 20260506122239 | 10 | 0 | 0.0 | 0.0 | 0.00 | 0.03 | 0.00 | 90 | 1016.6 |
| 20260506121738 | 10 | 0 | 0.0 | 0.0 | 0.00 | 0.03 | 0.00 | 90 | 1016.5 |
| 20260506121234 | 10 | 0 | 0.0 | 0.0 | 0.00 | 0.03 | 0.00 | 90 | 1016.5 |
| 20260506120734 | 10 | 0 | 0.0 | 0.0 | 0.00 | 0.03 | 0.00 | 90 | 1016.5 |
| 20260506120233 | 10 | 0 | 0.0 | 0.0 | 0.00 | 0.03 | 0.00 | 90 | 1016.5 |
| 20260506115233 | 10 | 0 | 0.0 | 0.0 | 0.00 | 0.03 | 0.00 | 90 | 1016.5 |
| 20260506114959 | 10 | 0 | 0.0 | 0.0 | 0.00 | 0.03 | 0.00 | 90 | 1016.5 |
| 20260506114227 | 10 | 0 | 0.0 | 0.0 | 0.00 | 0.03 | 0.00 | 90 | 1016.5 |
| 20260506113958 | 10 | 0 | 0.0 | 0.0 | 0.00 | 0.03 | 0.00 | 90 | 1016.5 |
| 20260506113222 | 10 | 0 | 0.0 | 0.0 | 0.00 | 0.03 | 0.00 | 90 | 1016.5 |
| 20260506112951 | 10 | 0 | 0.0 | 0.0 | 0.00 | 0.03 | 0.00 | 89 | 1016.4 |
| 20260506112219 | 10 | 0 | 0.0 | 0.0 | 0.00 | 0.05 | 0.00 | 89 | 1016.4 |
| 20260506111715 | 10 | 0 | 0.0 | 0.0 | 0.00 | 0.05 | 0.00 | 90 | 1016.4 |
| 20260506111213 | 11 | 0 | 0.0 | 0.0 | 0.00 | 0.05 | 0.00 | 90 | 1016.4 |
| 20260506110713 | 11 | 0 | 0.0 | 0.0 | 0.00 | 0.05 | 0.00 | 90 | 1016.4 |
| 20260506110207 | 11 | 0 | 0.0 | 0.0 | 0.00 | 0.05 | 0.00 | 90 | 1016.4 |
| 20260506105706 | 11 | 0 | 0.0 | 0.0 | 0.00 | 0.05 | 0.00 | 89 | 1016.4 |
| 20260506105208 | 11 | 0 | 0.0 | 0.0 | 0.00 | 0.05 | 0.00 | 89 | 1016.4 |
| 20260506104701 | 11 | 0 | 0.0 | 0.0 | 0.00 | 0.08 | 0.00 | 89 | 1016.5 |
| 20260506104431 | 11 | 0 | 0.0 | 0.0 | 0.00 | 0.10 | 0.00 | 89 | 1016.5 |
| 20260506103701 | 11 | 0 | 0.0 | 0.0 | 0.00 | 0.13 | 0.00 | 89 | 1016.5 |
| 20260506103202 | 11 | 0 | 0.0 | 0.0 | 0.00 | 0.13 | 0.00 | 89 | 1016.5 |
| 20260506102700 | 11 | 0 | 0.0 | 0.0 | 0.00 | 0.15 | 0.00 | 89 | 1016.5 |
| 20260506102431 | 11 | 0 | 0.0 | 0.0 | 0.00 | 0.18 | 0.00 | 89 | 1016.4 |
| 20260506101931 | 11 | 0 | 0.0 | 0.0 | 0.00 | 0.18 | 0.00 | 89 | 1016.5 |
| 20260506101156 | 11 | 0 | 0.0 | 0.0 | 0.00 | 0.18 | 0.00 | 89 | 1016.5 |
| 20260506100655 | 11 | 0 | 0.0 | 0.0 | 0.00 | 0.18 | 0.00 | 89 | 1016.5 |
| 20260506100156 | 11 | 0 | 0.0 | 0.0 | 0.00 | 0.18 | 0.00 | 89 | 1016.5 |
| 20260506095653 | 11 | 0 | 0.0 | 0.0 | 0.00 | 0.18 | 0.00 | 90 | 1016.5 |
| 20260506095152 | 11 | 0 | 0.0 | 0.0 | 0.00 | 0.18 | 0.00 | 89 | 1016.5 |
| 20260506094647 | 11 | 0 | 0.0 | 0.0 | 0.00 | 0.20 | 0.00 | 89 | 1016.5 |
| 20260506094148 | 11 | 0 | 0.0 | 0.0 | 0.00 | 0.20 | 0.00 | 89 | 1016.5 |
| 20260506093646 | 11 | 0 | 0.0 | 0.0 | 0.00 | 0.20 | 0.00 | 89 | 1016.6 |
| 20260506093140 | 11 | 0 | 0.0 | 0.0 | 0.00 | 0.20 | 0.00 | 89 | 1016.6 |
| 20260506092641 | 11 | 0 | 0.0 | 0.0 | 0.00 | 0.20 | 0.00 | 90 | 1016.6 |
| 20260506092140 | 11 | 0 | 0.0 | 0.0 | 0.00 | 0.20 | 0.00 | 90 | 1016.6 |
| 20260506091634 | 11 | 0 | 0.0 | 0.0 | 0.00 | 0.20 | 0.00 | 89 | 1016.6 |
| 20260506091405 | 11 | 0 | 0.0 | 0.0 | 0.00 | 0.20 | 0.00 | 89 | 1016.6 |
| 20260506090635 | 11 | 0 | 0.0 | 0.0 | 0.00 | 0.20 | 0.00 | 89 | 1016.7 |
| 20260506090129 | 11 | 0 | 0.0 | 0.0 | 0.00 | 0.20 | 0.00 | 89 | 1016.7 |
| 20260506085629 | 11 | 0 | 0.0 | 1.6 | 0.00 | 0.20 | 0.00 | 89 | 1016.7 |
| 20260506085129 | 11 | 0 | 0.0 | 1.6 | 0.00 | 0.20 | 0.00 | 89 | 1016.8 |
| 20260506084623 | 11 | 0 | 0.0 | 1.6 | 0.00 | 0.20 | 0.00 | 88 | 1016.8 |
| 20260506084123 | 11 | 0 | 0.0 | 1.6 | 0.00 | 0.20 | 0.00 | 88 | 1016.8 |
| 20260506083853 | 11 | 0 | 0.0 | 1.6 | 0.00 | 0.20 | 0.00 | 88 | 1016.8 |
| 20260506083117 | 11 | 0 | 0.0 | 0.0 | 0.00 | 0.20 | 0.00 | 88 | 1016.9 |
| 20260506082617 | 11 | 0 | 0.0 | 0.0 | 0.00 | 0.20 | 0.00 | 88 | 1016.9 |
| 20260506082117 | 11 | 0 | 0.0 | 0.0 | 0.00 | 0.20 | 0.00 | 88 | 1016.9 |
| 20260506081843 | 11 | 0 | 0.0 | 0.0 | 0.00 | 0.20 | 0.00 | 88 | 1016.9 |
| 20260506081110 | 11 | 0 | 0.0 | 0.0 | 0.00 | 0.20 | 0.00 | 88 | 1017.0 |
| 20260506080610 | 11 | 0 | 0.0 | 0.0 | 0.00 | 0.20 | 0.00 | 87 | 1017.0 |
| 20260506080339 | 11 | 0 | 0.0 | 0.0 | 0.00 | 0.20 | 0.00 | 88 | 1017.0 |